User: anonymous   Login
Location: Barrio de Buenos Aires
(28.4500°N, 16.2667°W)
Time: 12:57:09
(UTC+00:00)
Language:

Cosmos 1624 Rocket - Orbit

View from above orbital plane
View from above orbital plane
View from above satellite
View from above satellite

Ground track
Ground track

The orbit data is extracted from the following two-line orbital elements,

1 15483U 85006B   20098.90863699 +.00000098 +00000-0 +42399-4 0  9997
2 15483 074.0439 272.6249 0018819 357.8675 107.7212 14.36310917843538
Epoch (UTC): 07 April 2020 21:48:26
Eccentricity: 0.0018819
inclination: 74.0439°
perigee height: 757 km
apogee height: 784 km
right ascension of ascending node: 272.6249°
argument of perigee: 357.8675°
revolutions per day: 14.36310917
mean anomaly at epoch: 107.7212°
orbit number at epoch: 84353

The dashed part of the orbit path shows where the satellite is in the earth's shadow,  

DLR